Yuma MCAS, AZ

3:16 PM MST on October 16, 2019 (GMT -0700)
Yuma Marine Corps Air Station

Weather History for KNYL - September, 2019

Change the Weather History Date:

Friday, September 20, 2019

  Actual Average Record
Temperature  
Mean Temperature 82 °F 88 °F  
Max Temperature 95 °F 100 °F 108 °F (1949)
Min Temperature 69 °F 76 °F 53 °F (1965)
Degree Days  
Heating Degree Days 0 0  
Month to date heating degree days 0 0  
Since 1 July heating degree days 0 0  
Cooling Degree Days 17 23  
Month to date cooling degree days 537 516  
Year to date cooling degree days 3835 3969  
Growing Degree Days 32 (Base 50)    
Moisture  
Dew Point 39 °F    
Average Humidity 30    
Maximum Humidity 49    
Minimum Humidity 10    
Precipitation  
Precipitation 0.00 in 0.02 in 0.12 in (2016)
Month to date precipitation 0.00 0.38  
Year to date precipitation 0.96 2.47  
Sea Level Pressure  
Sea Level Pressure 29.75 in    
Wind  
Wind Speed 6 mph (NW)    
Max Wind Speed 14 mph    
Max Gust Speed 21 mph    
Visibility 9 miles    
Events      
T = Trace of Precipitation, MM = Missing Value Source: NWS Daily Summary

Daily Weather History Graph

Daily Weather History Graph

Search for Another Location

Airport or City:

Astronomy

Sep. 20, 2019 Rise Set
Actual Time 6:25 AM MST 6:37 PM MST
Civil Twilight 6:00 AM MST 7:02 PM MST
Nautical Twilight 5:31 AM MST 7:31 PM MST
Astronomical Twilight 5:02 AM MST 8:00 PM MST
Moon 10:50 PM MST (9/20) 12:15 PM MST (9/20)
Length of Visible Light 13h 01m
Length of Day
12h 12m
Waning Gibbous, 64% of the Moon is Illuminated
Sep 20
Waning Gibbous
Sep 21
Last Quarter
Sep 28
New
Oct 5
First Quarter
Oct 13
Full

Hourly Weather History & Observations

Time (MST) Temp. Dew Point Humidity Pressure Visibility Wind Dir Wind Speed Gust Speed Precip Events Conditions
12:57 AM 75.9 °F 43.0 °F 31% 29.72 in 10.0 mi NNW 5.8 mph - N/A   Clear
1:57 AM 75.9 °F 43.0 °F 31% 29.73 in 10.0 mi NNW 10.4 mph - N/A   Clear
2:57 AM 73.0 °F 45.0 °F 37% 29.72 in 10.0 mi NNW 6.9 mph - N/A   Clear
3:57 AM 72.0 °F 50.0 °F 46% 29.72 in 10.0 mi WNW 4.6 mph - N/A   Clear
4:57 AM 71.1 °F 51.1 °F 49% 29.73 in 10.0 mi NW 5.8 mph - N/A   Clear
5:57 AM 71.1 °F 51.1 °F 49% 29.75 in 10.0 mi North 4.6 mph - N/A   Clear
6:57 AM 73.0 °F 46.0 °F 38% 29.77 in 7.0 mi NNW 6.9 mph - N/A   Clear
7:57 AM 75.0 °F 48.9 °F 40% 29.79 in 7.0 mi WNW 3.5 mph - N/A   Clear
8:57 AM 81.0 °F 39.0 °F 22% 29.81 in 7.0 mi North 9.2 mph - N/A   Clear
9:57 AM 86.0 °F 37.0 °F 18% 29.82 in 7.0 mi North 10.4 mph - N/A   Clear
10:57 AM 87.1 °F 36.0 °F 16% 29.81 in 7.0 mi NNW 9.2 mph - N/A   Clear
11:57 AM 91.0 °F 36.0 °F 14% 29.80 in 7.0 mi Variable 4.6 mph - N/A   Clear
12:57 PM 91.9 °F 30.9 °F 11% 29.78 in 7.0 mi NNW 5.8 mph - N/A   Clear
1:57 PM 91.9 °F 30.9 °F 11% 29.76 in 7.0 mi WSW 5.8 mph - N/A   Clear
2:57 PM 93.9 °F 28.9 °F 10% 29.74 in 7.0 mi Calm Calm - N/A   Smoke
3:57 PM 93.0 °F 28.9 °F 10% 29.73 in 7.0 mi Variable 3.5 mph - N/A   Smoke
4:57 PM 93.9 °F 30.9 °F 11% 29.72 in 10.0 mi SE 10.4 mph - N/A   Smoke
5:57 PM 91.9 °F 30.9 °F 11% 29.71 in 10.0 mi SSE 6.9 mph - N/A   Smoke
6:57 PM 88.0 °F 36.0 °F 16% 29.71 in 10.0 mi South 4.6 mph - N/A   Smoke
7:57 PM 86.0 °F 33.1 °F 15% 29.73 in 10.0 mi WSW 6.9 mph - N/A   Smoke
8:57 PM 82.9 °F 35.1 °F 18% 29.75 in 10.0 mi WSW 9.2 mph - N/A   Smoke
9:57 PM 82.0 °F 37.0 °F 20% 29.76 in 10.0 mi West 10.4 mph - N/A   Smoke
10:57 PM 79.0 °F 37.9 °F 23% 29.77 in 10.0 mi West 6.9 mph - N/A   Smoke
11:57 PM 77.0 °F 37.9 °F 24% 29.78 in 10.0 mi Calm Calm - N/A   Smoke